Lid_Strength_Index
1 0 0 0 0 -0 -0 -0 -1 -1 -1 -0 -1 -0 0 1 1 1 1 1 2 2 1 2 2 2 3 3 2 2 3 3 4 2 1 -1 -1 -1 -1 -2 -1 -2 -1
0 1 1 1 0 0 0 -0 -1 -0 -1 -1 0 1 2 2 1 2 2 3 2 3 3 3 3 3 2 2 3 1 1 0 2 2 1 1 -0 -1 -1 -1 -1 -0 -1
1 1 1 1 1 1 0 -0 -0 -0 -1 1 1 3 3 3 3 3 2 2 3 3 3 3 3 2 3 2 1 2 1 1 1 2 2 1 1 0 -0 -1 -1 -1 -1
1 1 1 1 1 1 0 0 -0 -0 1 2 3 3 4 3 3 3 3 3 3 3 3 3 3 3 3 2 2 1 1 1 1 2 2 1 1 -0 -0 1 1 -0 0
1 1 1 1 1 1 1 0 0 2 4 4 3 5 4 3 4 3 3 4 3 3 3 3 2 2 2 2 2 2 2 2 2 2 2 2 1 2 2 1 1 1 0
1 2 1 1 1 1 1 1 2 5 5 5 5 4 3 5 8 7 5 3 3 3 3 2 1 1 1 1 1 1 1 1 1 1 2 2 2 1 1 1 2 2 3
1 1 1 1 1 1 1 3 4 6 6 6 4 3 4 6 8 8 7 2 3 3 2 1 1 1 2 3 2 1 -0 -0 -0 -0 1 1 1 0 0 1 1 1 2
2 2 1 2 2 2 3 4 4 5 5 4 5 4 4 7 8 7 7 2 2 2 1 1 1 1 3 4 2 0 -0 -1 -1 -0 -1 -1 -1 -1 -1 -0 0 1 0
2 2 2 2 3 4 4 5 5 5 5 5 5 3 4 7 8 8 6 2 3 1 1 1 2 2 6 5 1 0 -0 -0 -0 -1 1 1 2 2 1 -0 1 2 3
2 2 1 2 3 4 5 6 5 5 5 4 5 4 5 7 9 8 6 3 2 1 0 0 5 3 5 4 1 0 2 1 1 -0 -1 -1 -0 -1 1 -1 0 2 2
1 1 2 2 4 4 6 7 6 6 6 6 5 5 5 6 6 8 7 3 1 1 1 1 2 5 5 4 4 1 2 2 1 -0 0 1 -0 -1 -0 -1 -2 -0 1
1 2 3 3 5 6 7 7 6 6 6 6 6 6 5 4 7 8 7 6 5 1 1 1 2 5 4 3 3 4 4 3 0 0 1 1 1 0 -1 -1 -2 -2 -2
3 4 6 7 7 7 8 7 7 6 7 7 7 7 6 5 6 8 5 5 6 3 1 4 4 4 4 3 3 2 3 -0 0 1 1 1 0 -1 -1 -1 -3 -3 -3
7 7 8 8 8 8 7 7 7 6 7 7 7 7 6 5 5 4 3 3 5 3 3 1 1 2 3 2 2 1 -1 -1 -0 0 0 0 -0 -0 -0 -0 0 -0 0
7 8 8 8 9 8 8 8 6 6 6 7 7 6 6 5 4 4 4 1 1 4 3 -0 0 0 -0 -0 -1 -1 -1 -0 0 -0 0 0 0 0 0 -0 0 0 1
8 8 8 8 8 8 8 8 10 10 10 9 10 6 6 7 8 6 6 5 6 7 2 1 1 0 -0 -0 -0 -0 -1 -0 -0 -0 -0 0 0 0 0 0 0 1 1
6 7 7 8 8 7 8 7 7 8 9 10 10 9 8 7 7 7 6 6 6 7 2 1 0 0 -0 -0 -0 0 0 -0 -1 -0 0 0 0 0 1 1 1 1 1
6 8 6 7 7 7 5 5 5 6 7 6 9 8 9 7 7 7 7 7 3 5 2 1 0 0 -0 0 -0 0 -0 -0 -0 -0 0 0 0 1 1 1 1 1 1
5 5 4 5 4 4 4 5 6 6 6 5 4 8 7 8 7 7 7 3 2 1 1 0 -0 -0 -0 -0 -0 -1 -1 -0 -0 -0 -0 0 0 1 1 1 1 4 3
4 5 4 3 4 5 5 6 6 5 5 4 4 3 2 4 3 3 3 2 2 1 0 0 -0 -0 -0 -1 -1 -0 -0 0 0 -0 0 0 -0 0 1 1 1 1 1
2 3 6 3 4 5 5 6 5 4 4 3 2 1 5 1 1 1 1 1 1 1 0 -0 -0 -0 -1 -1 -1 -0 -0 -0 0 -0 0 0 0 1 0 0 0 1 1
3 4 4 3 4 5 5 5 4 4 4 3 2 2 8 1 1 1 0 0 0 -0 -1 -1 -1 -1 -1 -1 -1 -0 -0 -0 -0 -0 -0 -0 -0 0 1 1 1 1 1
4 4 5 4 4 7 5 4 4 4 3 2 1 1 1 1 1 0 0 -0 -1 -1 -1 -1 -1 -1 -1 -1 -2 -1 -0 -0 -1 -1 -0 -0 0 1 1 1 1 1 1
5 5 5 5 5 5 5 4 4 7 3 2 1 1 0 1 1 -0 -0 -1 -1 -1 -1 -1 -1 -1 -1 -2 -2 -2 -2 -2 -2 -1 -1 -0 0 0 1 1 0 1 0
4 5 4 4 5 5 5 5 4 4 2 1 1 1 0 0 -0 -0 -1 -1 -1 -1 -1 -1 -1 -1 -1 -2 -2 -2 1 7 1 5 -1 -1 -0 0 0 1 1 0 1
4 4 4 4 4 4 4 4 3 2 1 1 0 0 0 -0 -0 -0 -0 -1 -0 -1 -1 -1 -1 -1 -2 -1 -1 3 7 8 3 8 1 -0 -0 -0 0 0 1 1 2